Location: Champaign/Urbana Astronomical Society Observatory
(40.0333°N, 88.2833°W)
Time: 23:15:22
(UTC-05:00)

AIST 2D - Pass Details

Date: 23 May 2019
Orbit: 455 x 473 km, 97.2° (Epoch: 24 June)

Event Time Altitude Azimuth Distance (km) Brightness Sun altitude
Rises 00:28:30 0° 358° (N) 2,509 ? -29.2°
Reaches altitude 10° 00:30:48 10° 344° (NNW) 1,624 ? -29.3°
Enters shadow 00:32:13 18° 325° (NW) 1,197 ? -29.3°
